Year,Month,Day,Hour,Minute,Value (Times are PST for temperature in C)
2018,08,09,00,00,21.30
2018,08,09,00,01,21.20
2018,08,09,00,02,21.20
2018,08,09,00,03,21.20
2018,08,09,00,04,21.20
2018,08,09,00,05,21.20
2018,08,09,00,06,21.10
2018,08,09,00,07,21.10
2018,08,09,00,08,21.10
2018,08,09,00,09,21.10
2018,08,09,00,10,21.10
2018,08,09,00,11,21.10
2018,08,09,00,12,21.10
2018,08,09,00,13,21.00
2018,08,09,00,14,21.00
2018,08,09,00,15,21.00
2018,08,09,00,16,20.90
2018,08,09,00,17,20.90
2018,08,09,00,18,20.90
2018,08,09,00,19,20.90
2018,08,09,00,20,20.90
2018,08,09,00,21,20.90
2018,08,09,00,22,20.90
2018,08,09,00,23,20.80
2018,08,09,00,24,20.80
2018,08,09,00,25,20.80
2018,08,09,00,26,20.80
2018,08,09,00,27,20.80
2018,08,09,00,28,20.80
2018,08,09,00,29,20.80
2018,08,09,00,30,20.80
2018,08,09,00,31,20.80
2018,08,09,00,32,20.80
2018,08,09,00,33,20.80
2018,08,09,00,34,20.70
2018,08,09,00,35,20.70
2018,08,09,00,36,20.70
2018,08,09,00,37,20.70
2018,08,09,00,38,20.60
2018,08,09,00,39,20.60
2018,08,09,00,40,20.60
2018,08,09,00,41,20.60
2018,08,09,00,42,20.50
2018,08,09,00,43,20.50
2018,08,09,00,44,20.50
2018,08,09,00,45,20.40
2018,08,09,00,46,20.40
2018,08,09,00,47,20.40
2018,08,09,00,48,20.40
2018,08,09,00,49,20.30
2018,08,09,00,50,20.30
2018,08,09,00,51,20.30
2018,08,09,00,52,20.30
2018,08,09,00,53,20.30
2018,08,09,00,54,20.30
2018,08,09,00,55,20.30
2018,08,09,00,56,20.30
2018,08,09,00,57,20.30
2018,08,09,00,58,20.30
2018,08,09,00,59,20.20
2018,08,09,01,00,20.20
2018,08,09,01,01,20.20
2018,08,09,01,02,20.20
2018,08,09,01,03,20.20
2018,08,09,01,04,20.20
2018,08,09,01,05,20.20
2018,08,09,01,06,20.10
2018,08,09,01,07,20.10
2018,08,09,01,08,20.10
2018,08,09,01,09,20.10
2018,08,09,01,10,20.10
2018,08,09,01,11,20.00
2018,08,09,01,12,20.00
2018,08,09,01,13,20.00
2018,08,09,01,14,20.00
2018,08,09,01,15,20.00
2018,08,09,01,16,20.00
2018,08,09,01,17,19.90
2018,08,09,01,18,19.90
2018,08,09,01,19,19.90
2018,08,09,01,20,19.90
2018,08,09,01,21,19.90
2018,08,09,01,22,19.90
2018,08,09,01,23,19.80
2018,08,09,01,24,19.80
2018,08,09,01,25,19.80
2018,08,09,01,26,19.80
2018,08,09,01,27,19.80
2018,08,09,01,28,19.80
2018,08,09,01,29,19.80
2018,08,09,01,30,19.80
2018,08,09,01,31,19.80
2018,08,09,01,32,19.80
2018,08,09,01,33,19.80
2018,08,09,01,34,19.80
2018,08,09,01,35,19.80
2018,08,09,01,36,19.80
2018,08,09,01,37,19.80
2018,08,09,01,38,19.80
2018,08,09,01,39,19.80
2018,08,09,01,40,19.80
2018,08,09,01,41,19.70
2018,08,09,01,42,19.70
2018,08,09,01,43,19.70
2018,08,09,01,44,19.70
2018,08,09,01,45,19.70
2018,08,09,01,46,19.70
2018,08,09,01,47,19.60
2018,08,09,01,48,19.60
2018,08,09,01,49,19.60
2018,08,09,01,50,19.50
2018,08,09,01,51,19.50
2018,08,09,01,52,19.50
2018,08,09,01,53,19.50
2018,08,09,01,54,19.40
2018,08,09,01,55,19.40
2018,08,09,01,56,19.40
2018,08,09,01,57,19.40
2018,08,09,01,58,19.40
2018,08,09,01,59,19.30
2018,08,09,02,00,19.30
2018,08,09,02,01,19.30
2018,08,09,02,02,19.30
2018,08,09,02,03,19.30
2018,08,09,02,04,19.30
2018,08,09,02,05,19.30
2018,08,09,02,06,19.30
2018,08,09,02,07,19.30
2018,08,09,02,08,19.30
2018,08,09,02,09,19.30
2018,08,09,02,10,19.30
2018,08,09,02,11,19.30
2018,08,09,02,12,19.30
2018,08,09,02,13,19.20
2018,08,09,02,14,19.20
2018,08,09,02,15,19.20
2018,08,09,02,16,19.20
2018,08,09,02,17,19.20
2018,08,09,02,18,19.20
2018,08,09,02,19,19.20
2018,08,09,02,20,19.20
2018,08,09,02,21,19.10
2018,08,09,02,22,19.10
2018,08,09,02,23,19.10
2018,08,09,02,24,19.10
2018,08,09,02,25,19.10
2018,08,09,02,26,19.10
2018,08,09,02,27,19.10
2018,08,09,02,28,19.10
2018,08,09,02,29,19.10
2018,08,09,02,30,19.10
2018,08,09,02,31,19.00
2018,08,09,02,32,19.00
2018,08,09,02,33,19.00
2018,08,09,02,34,19.00
2018,08,09,02,35,18.90
2018,08,09,02,36,18.90
2018,08,09,02,37,18.90
2018,08,09,02,38,18.90
2018,08,09,02,39,18.90
2018,08,09,02,40,18.90
2018,08,09,02,41,19.00
2018,08,09,02,42,19.00
2018,08,09,02,43,19.00
2018,08,09,02,44,19.00
2018,08,09,02,45,19.00
2018,08,09,02,46,19.00
2018,08,09,02,47,19.00
2018,08,09,02,48,19.00
2018,08,09,02,49,19.00
2018,08,09,02,50,18.90
2018,08,09,02,51,18.90
2018,08,09,02,52,18.90
2018,08,09,02,53,18.90
2018,08,09,02,54,18.90
2018,08,09,02,55,18.90
2018,08,09,02,56,18.80
2018,08,09,02,57,18.80
2018,08,09,02,58,18.80
2018,08,09,02,59,18.80
2018,08,09,03,00,18.70
2018,08,09,03,01,18.70
2018,08,09,03,02,18.70
2018,08,09,03,03,18.70
2018,08,09,03,04,18.70
2018,08,09,03,05,18.60
2018,08,09,03,06,18.60
2018,08,09,03,07,18.60
2018,08,09,03,08,18.60
2018,08,09,03,09,18.60
2018,08,09,03,10,18.50
2018,08,09,03,11,18.50
2018,08,09,03,12,18.50
2018,08,09,03,13,18.50
2018,08,09,03,14,18.50
2018,08,09,03,15,18.40
2018,08,09,03,16,18.40
2018,08,09,03,17,18.40
2018,08,09,03,18,18.40
2018,08,09,03,19,18.40
2018,08,09,03,20,18.40
2018,08,09,03,21,18.40
2018,08,09,03,22,18.30
2018,08,09,03,23,18.30
2018,08,09,03,24,18.30
2018,08,09,03,25,18.30
2018,08,09,03,26,18.20
2018,08,09,03,27,18.20
2018,08,09,03,28,18.20
2018,08,09,03,29,18.20
2018,08,09,03,30,18.20
2018,08,09,03,31,18.20
2018,08,09,03,32,18.20
2018,08,09,03,33,18.10
2018,08,09,03,34,18.10
2018,08,09,03,35,18.10
2018,08,09,03,36,18.10
2018,08,09,03,37,18.10
2018,08,09,03,38,18.10
2018,08,09,03,39,18.00
2018,08,09,03,40,18.00
2018,08,09,03,41,18.00
2018,08,09,03,42,18.00
2018,08,09,03,43,18.00
2018,08,09,03,44,18.00
2018,08,09,03,45,18.00
2018,08,09,03,46,17.90
2018,08,09,03,47,17.90
2018,08,09,03,48,17.90
2018,08,09,03,49,17.90
2018,08,09,03,50,17.80
2018,08,09,03,51,17.80
2018,08,09,03,52,17.80
2018,08,09,03,53,17.80
2018,08,09,03,54,17.80
2018,08,09,03,55,17.80
2018,08,09,03,56,17.80
2018,08,09,03,57,17.80
2018,08,09,03,58,17.70
2018,08,09,03,59,17.70
2018,08,09,04,00,17.70
2018,08,09,04,01,17.70
2018,08,09,04,02,17.70
2018,08,09,04,03,17.70
2018,08,09,04,04,17.70
2018,08,09,04,05,17.70
2018,08,09,04,06,17.70
2018,08,09,04,07,17.70
2018,08,09,04,08,17.60
2018,08,09,04,09,17.60
2018,08,09,04,10,17.60
2018,08,09,04,11,17.60
2018,08,09,04,12,17.60
2018,08,09,04,13,17.60
2018,08,09,04,14,17.60
2018,08,09,04,15,17.60
2018,08,09,04,16,17.60
2018,08,09,04,17,17.50
2018,08,09,04,18,17.50
2018,08,09,04,19,17.50
2018,08,09,04,20,17.50
2018,08,09,04,21,17.50
2018,08,09,04,22,17.50
2018,08,09,04,23,17.40
2018,08,09,04,24,17.40
2018,08,09,04,25,17.40
2018,08,09,04,26,17.40
2018,08,09,04,27,17.40
2018,08,09,04,28,17.40
2018,08,09,04,29,17.40
2018,08,09,04,30,17.40
2018,08,09,04,31,17.40
2018,08,09,04,32,17.40
2018,08,09,04,33,17.40
2018,08,09,04,34,17.40
2018,08,09,04,35,17.40
2018,08,09,04,36,17.40
2018,08,09,04,37,17.40
2018,08,09,04,38,17.40
2018,08,09,04,39,17.40
2018,08,09,04,40,17.40
2018,08,09,04,41,17.40
2018,08,09,04,42,17.30
2018,08,09,04,43,17.30
2018,08,09,04,44,17.30
2018,08,09,04,45,17.30
2018,08,09,04,46,17.30
2018,08,09,04,47,17.30
2018,08,09,04,48,17.30
2018,08,09,04,49,17.30
2018,08,09,04,50,17.30
2018,08,09,04,51,17.30
2018,08,09,04,52,17.30
2018,08,09,04,53,17.30
2018,08,09,04,54,17.30
2018,08,09,04,55,17.30
2018,08,09,04,56,17.30
2018,08,09,04,57,17.30
2018,08,09,04,58,17.30
2018,08,09,04,59,17.30
2018,08,09,05,00,17.30
2018,08,09,05,01,17.30
2018,08,09,05,02,17.30
2018,08,09,05,03,17.20
2018,08,09,05,04,17.20
2018,08,09,05,05,17.20
2018,08,09,05,06,17.20
2018,08,09,05,07,17.10
2018,08,09,05,08,17.10
2018,08,09,05,09,17.10
2018,08,09,05,10,17.10
2018,08,09,05,11,17.10
2018,08,09,05,12,17.10
2018,08,09,05,13,17.10
2018,08,09,05,14,17.10
2018,08,09,05,15,17.10
2018,08,09,05,16,17.10
2018,08,09,05,17,17.10
2018,08,09,05,18,17.10
2018,08,09,05,19,17.00
2018,08,09,05,20,17.00
2018,08,09,05,21,17.00
2018,08,09,05,22,17.00
2018,08,09,05,23,17.00
2018,08,09,05,24,16.90
2018,08,09,05,25,16.90
2018,08,09,05,26,16.90
2018,08,09,05,27,16.90
2018,08,09,05,28,16.90
2018,08,09,05,29,16.90
2018,08,09,05,30,16.90
2018,08,09,05,31,16.90
2018,08,09,05,32,16.90
2018,08,09,05,33,16.90
2018,08,09,05,34,16.90
2018,08,09,05,35,16.90
2018,08,09,05,36,16.90
2018,08,09,05,37,16.90
2018,08,09,05,38,16.90
2018,08,09,05,39,16.90
2018,08,09,05,40,16.90
2018,08,09,05,41,16.90
2018,08,09,05,42,16.80
2018,08,09,05,43,16.80
2018,08,09,05,44,16.80
2018,08,09,05,45,16.80
2018,08,09,05,46,16.80
2018,08,09,05,47,16.80
2018,08,09,05,48,16.80
2018,08,09,05,49,16.80
2018,08,09,05,50,16.80
2018,08,09,05,51,16.80
2018,08,09,05,52,16.80
2018,08,09,05,53,16.80
2018,08,09,05,54,16.70
2018,08,09,05,55,16.70
2018,08,09,05,56,16.70
2018,08,09,05,57,16.60
2018,08,09,05,58,16.60
2018,08,09,05,59,16.60
2018,08,09,06,00,16.40
2018,08,09,06,01,16.30
2018,08,09,06,02,16.30
2018,08,09,06,03,16.20
2018,08,09,06,04,16.20
2018,08,09,06,05,16.20
2018,08,09,06,06,16.20
2018,08,09,06,07,16.20
2018,08,09,06,08,16.20
2018,08,09,06,09,16.20
2018,08,09,06,10,16.20
2018,08,09,06,11,16.20
2018,08,09,06,12,16.20
2018,08,09,06,13,16.20
2018,08,09,06,14,16.20
2018,08,09,06,15,16.10
2018,08,09,06,16,16.10
2018,08,09,06,17,16.10
2018,08,09,06,18,16.10
2018,08,09,06,19,16.10
2018,08,09,06,20,16.10
2018,08,09,06,21,16.10
2018,08,09,06,22,16.10
2018,08,09,06,23,16.10
2018,08,09,06,24,16.10
2018,08,09,06,25,16.10
2018,08,09,06,26,16.30
2018,08,09,06,27,16.40
2018,08,09,06,28,16.40
2018,08,09,06,29,16.30
2018,08,09,06,30,16.30
2018,08,09,06,31,16.30
2018,08,09,06,32,16.30
2018,08,09,06,33,16.30
2018,08,09,06,34,16.40
2018,08,09,06,35,16.40
2018,08,09,06,36,16.40
2018,08,09,06,37,16.40
2018,08,09,06,38,16.40
2018,08,09,06,39,16.40
2018,08,09,06,40,16.40
2018,08,09,06,41,16.40
2018,08,09,06,42,16.40
2018,08,09,06,43,16.40
2018,08,09,06,44,16.40
2018,08,09,06,45,16.40
2018,08,09,06,46,16.50
2018,08,09,06,47,16.50
2018,08,09,06,48,16.50
2018,08,09,06,49,16.50
2018,08,09,06,50,16.60
2018,08,09,06,51,16.60
2018,08,09,06,52,16.60
2018,08,09,06,53,16.60
2018,08,09,06,54,16.60
2018,08,09,06,55,16.60
2018,08,09,06,56,16.60
2018,08,09,06,57,16.60
2018,08,09,06,58,16.60
2018,08,09,06,59,16.60
2018,08,09,07,00,16.60
2018,08,09,07,01,16.60
2018,08,09,07,02,16.60
2018,08,09,07,03,16.60
2018,08,09,07,04,16.60
2018,08,09,07,05,16.60
2018,08,09,07,06,16.60
2018,08,09,07,07,16.70
2018,08,09,07,08,16.70
2018,08,09,07,09,16.70
2018,08,09,07,10,16.70
2018,08,09,07,11,16.70
2018,08,09,07,12,16.70
2018,08,09,07,13,16.70
2018,08,09,07,14,16.70
2018,08,09,07,15,16.70
2018,08,09,07,16,16.70
2018,08,09,07,17,16.70
2018,08,09,07,18,16.70
2018,08,09,07,19,16.70
2018,08,09,07,20,16.70
2018,08,09,07,21,16.70
2018,08,09,07,22,16.70
2018,08,09,07,23,16.70
2018,08,09,07,24,16.80
2018,08,09,07,25,16.80
2018,08,09,07,26,16.60
2018,08,09,07,27,16.50
2018,08,09,07,28,16.60
2018,08,09,07,29,16.60
2018,08,09,07,30,16.60
2018,08,09,07,31,16.60
2018,08,09,07,32,16.60
2018,08,09,07,33,16.70
2018,08,09,07,34,16.70
2018,08,09,07,35,16.80
2018,08,09,07,36,16.90
2018,08,09,07,37,17.00
2018,08,09,07,38,17.10
2018,08,09,07,39,17.20
2018,08,09,07,40,17.30
2018,08,09,07,41,17.40
2018,08,09,07,42,17.40
2018,08,09,07,43,17.50
2018,08,09,07,44,17.70
2018,08,09,07,45,17.80
2018,08,09,07,46,17.90
2018,08,09,07,47,18.00
2018,08,09,07,48,18.10
2018,08,09,07,49,18.20
2018,08,09,07,50,18.30
2018,08,09,07,51,18.40
2018,08,09,07,52,18.40
2018,08,09,07,53,18.50
2018,08,09,07,54,18.60
2018,08,09,07,55,18.60
2018,08,09,07,56,18.70
2018,08,09,07,57,18.70
2018,08,09,07,58,18.80
2018,08,09,07,59,18.90
2018,08,09,08,00,18.90
2018,08,09,08,01,19.00
2018,08,09,08,02,19.00
2018,08,09,08,03,19.10
2018,08,09,08,04,19.20
2018,08,09,08,05,19.20
2018,08,09,08,06,19.30
2018,08,09,08,07,19.30
2018,08,09,08,08,19.40
2018,08,09,08,09,19.50
2018,08,09,08,10,19.60
2018,08,09,08,11,19.70
2018,08,09,08,12,19.80
2018,08,09,08,13,19.80
2018,08,09,08,14,19.90
2018,08,09,08,15,20.00
2018,08,09,08,16,20.00
2018,08,09,08,17,20.00
2018,08,09,08,18,20.10
2018,08,09,08,19,20.30
2018,08,09,08,20,20.40
2018,08,09,08,21,20.50
2018,08,09,08,22,20.60
2018,08,09,08,23,20.70
2018,08,09,08,24,20.80
2018,08,09,08,25,20.90
2018,08,09,08,26,21.00
2018,08,09,08,27,21.10
2018,08,09,08,28,21.20
2018,08,09,08,29,21.20
2018,08,09,08,30,21.30
2018,08,09,08,31,21.30
2018,08,09,08,32,21.40
2018,08,09,08,33,21.30
2018,08,09,08,34,21.40
2018,08,09,08,35,21.40
2018,08,09,08,36,21.40
2018,08,09,08,37,21.50
2018,08,09,08,38,21.50
2018,08,09,08,39,21.60
2018,08,09,08,40,21.60
2018,08,09,08,41,21.60
2018,08,09,08,42,21.50
2018,08,09,08,43,21.70
2018,08,09,08,44,21.60
2018,08,09,08,45,21.60
2018,08,09,08,46,21.40
2018,08,09,08,47,21.30
2018,08,09,08,48,21.30
2018,08,09,08,49,21.20
2018,08,09,08,50,21.40
2018,08,09,08,51,21.20
2018,08,09,08,52,21.20
2018,08,09,08,53,21.10
2018,08,09,08,54,21.10
2018,08,09,08,55,21.00
2018,08,09,08,56,20.90
2018,08,09,08,57,20.90
2018,08,09,08,58,20.90
2018,08,09,08,59,20.80
2018,08,09,09,00,20.80
2018,08,09,09,01,20.80
2018,08,09,09,02,20.80
2018,08,09,09,03,20.80
2018,08,09,09,04,20.80
2018,08,09,09,05,20.80
2018,08,09,09,06,20.80
2018,08,09,09,07,20.80
2018,08,09,09,08,20.80
2018,08,09,09,09,20.90
2018,08,09,09,10,20.90
2018,08,09,09,11,20.90
2018,08,09,09,12,20.90
2018,08,09,09,13,20.90
2018,08,09,09,14,20.90
2018,08,09,09,15,20.90
2018,08,09,09,16,20.90
2018,08,09,09,17,21.00
2018,08,09,09,18,21.00
2018,08,09,09,19,21.00
2018,08,09,09,20,21.10
2018,08,09,09,21,21.10
2018,08,09,09,22,21.10
2018,08,09,09,23,21.10
2018,08,09,09,24,21.10
2018,08,09,09,25,21.10
2018,08,09,09,26,21.10
2018,08,09,09,27,21.10
2018,08,09,09,28,21.20
2018,08,09,09,29,21.20
2018,08,09,09,30,21.20
2018,08,09,09,31,21.20
2018,08,09,09,32,21.20
2018,08,09,09,33,21.30
2018,08,09,09,34,21.30
2018,08,09,09,35,21.40
2018,08,09,09,36,21.40
2018,08,09,09,37,21.50
2018,08,09,09,38,21.50
2018,08,09,09,39,21.60
2018,08,09,09,40,21.70
2018,08,09,09,41,21.70
2018,08,09,09,42,21.80
2018,08,09,09,43,21.80
2018,08,09,09,44,21.80
2018,08,09,09,45,21.90
2018,08,09,09,46,22.00
2018,08,09,09,47,22.00
2018,08,09,09,48,22.10
2018,08,09,09,49,22.20
2018,08,09,09,50,22.30
2018,08,09,09,51,22.60
2018,08,09,09,52,22.40
2018,08,09,09,53,22.80
2018,08,09,09,54,22.70
2018,08,09,09,55,22.70
2018,08,09,09,56,22.70
2018,08,09,09,57,22.70
2018,08,09,09,58,22.50
2018,08,09,09,59,22.40
2018,08,09,10,00,22.30
2018,08,09,10,01,22.20
2018,08,09,10,02,22.10
2018,08,09,10,03,22.10
2018,08,09,10,04,22.10
2018,08,09,10,05,22.10
2018,08,09,10,06,22.10
2018,08,09,10,07,22.10
2018,08,09,10,08,22.20
2018,08,09,10,09,22.20
2018,08,09,10,10,22.20
2018,08,09,10,11,22.20
2018,08,09,10,12,22.20
2018,08,09,10,13,22.20
2018,08,09,10,14,22.20
2018,08,09,10,15,22.20
2018,08,09,10,16,22.20
2018,08,09,10,17,22.20
2018,08,09,10,18,22.30
2018,08,09,10,19,22.30
2018,08,09,10,20,22.30
2018,08,09,10,21,22.30
2018,08,09,10,22,22.30
2018,08,09,10,23,22.40
2018,08,09,10,24,22.40
2018,08,09,10,25,22.40
2018,08,09,10,26,22.40
2018,08,09,10,27,22.50
2018,08,09,10,28,22.50
2018,08,09,10,29,22.60
2018,08,09,10,30,22.70
2018,08,09,10,31,22.70
2018,08,09,10,32,22.70
2018,08,09,10,33,22.80
2018,08,09,10,34,22.90
2018,08,09,10,35,22.90
2018,08,09,10,36,23.00
2018,08,09,10,37,23.10
2018,08,09,10,38,23.10
2018,08,09,10,39,23.20
2018,08,09,10,40,23.20
2018,08,09,10,41,23.30
2018,08,09,10,42,23.40
2018,08,09,10,43,23.40
2018,08,09,10,44,23.50
2018,08,09,10,45,23.60
2018,08,09,10,46,23.70
2018,08,09,10,47,23.70
2018,08,09,10,48,23.70
2018,08,09,10,49,23.80
2018,08,09,10,50,23.80
2018,08,09,10,51,23.80
2018,08,09,10,52,23.90
2018,08,09,10,53,23.90
2018,08,09,10,54,24.00
2018,08,09,10,55,24.00
2018,08,09,10,56,24.00
2018,08,09,10,57,24.10
2018,08,09,10,58,24.20
2018,08,09,10,59,24.20
2018,08,09,11,00,24.20
2018,08,09,11,01,24.30
2018,08,09,11,02,24.30
2018,08,09,11,03,24.30
2018,08,09,11,04,24.30
2018,08,09,11,05,24.30
2018,08,09,11,06,24.40
2018,08,09,11,07,24.40
2018,08,09,11,08,24.50
2018,08,09,11,09,24.60
2018,08,09,11,10,24.70
2018,08,09,11,11,24.70
2018,08,09,11,12,24.80
2018,08,09,11,13,24.90
2018,08,09,11,14,25.00
2018,08,09,11,15,25.10
2018,08,09,11,16,25.10
2018,08,09,11,17,25.20
2018,08,09,11,18,25.30
2018,08,09,11,19,25.40
2018,08,09,11,20,25.50
2018,08,09,11,21,25.70
2018,08,09,11,22,25.70
2018,08,09,11,23,25.70
2018,08,09,11,24,25.80
2018,08,09,11,25,25.80
2018,08,09,11,26,25.90
2018,08,09,11,27,25.90
2018,08,09,11,28,26.00
2018,08,09,11,29,26.00
2018,08,09,11,30,25.90
2018,08,09,11,31,25.90
2018,08,09,11,32,26.00
2018,08,09,11,33,26.00
2018,08,09,11,34,26.10
2018,08,09,11,35,26.10
2018,08,09,11,36,26.20
2018,08,09,11,37,26.20
2018,08,09,11,38,26.20
2018,08,09,11,39,26.30
2018,08,09,11,40,26.40
2018,08,09,11,41,26.40
2018,08,09,11,42,26.50
2018,08,09,11,43,26.60
2018,08,09,11,44,26.70
2018,08,09,11,45,26.70
2018,08,09,11,46,26.80
2018,08,09,11,47,26.80
2018,08,09,11,48,26.80
2018,08,09,11,49,26.80
2018,08,09,11,50,26.80
2018,08,09,11,51,26.80
2018,08,09,11,52,26.80
2018,08,09,11,53,26.70
2018,08,09,11,54,26.80
2018,08,09,11,55,26.70
2018,08,09,11,56,26.70
2018,08,09,11,57,26.60
2018,08,09,11,58,26.50
2018,08,09,11,59,26.40
2018,08,09,12,00,26.40
2018,08,09,12,01,26.40
2018,08,09,12,02,26.40
2018,08,09,12,03,26.50
2018,08,09,12,04,26.50
2018,08,09,12,05,26.50
2018,08,09,12,06,26.60
2018,08,09,12,07,26.60
2018,08,09,12,08,26.60
2018,08,09,12,09,26.70
2018,08,09,12,10,26.70
2018,08,09,12,11,26.70
2018,08,09,12,12,26.80
2018,08,09,12,13,26.80
2018,08,09,12,14,26.80
2018,08,09,12,15,26.80
2018,08,09,12,16,26.80
2018,08,09,12,17,26.80
2018,08,09,12,18,26.90
2018,08,09,12,19,26.90
2018,08,09,12,20,26.90
2018,08,09,12,21,26.90
2018,08,09,12,22,26.90
2018,08,09,12,23,26.90
2018,08,09,12,24,26.90
2018,08,09,12,25,26.90
2018,08,09,12,26,26.90
2018,08,09,12,27,26.90
2018,08,09,12,28,26.90
2018,08,09,12,29,27.00
2018,08,09,12,30,27.00
2018,08,09,12,31,27.10
2018,08,09,12,32,27.10
2018,08,09,12,33,27.20
2018,08,09,12,34,27.20
2018,08,09,12,35,27.30
2018,08,09,12,36,27.30
2018,08,09,12,37,27.40
2018,08,09,12,38,27.40
2018,08,09,12,39,27.40
2018,08,09,12,40,27.40
2018,08,09,12,41,27.40
2018,08,09,12,42,27.40
2018,08,09,12,43,27.40
2018,08,09,12,44,27.30
2018,08,09,12,45,27.40
2018,08,09,12,46,27.40
2018,08,09,12,47,27.40
2018,08,09,12,48,27.40
2018,08,09,12,49,27.40
2018,08,09,12,50,27.40
2018,08,09,12,51,27.40
2018,08,09,12,52,27.40
2018,08,09,12,53,27.40
2018,08,09,12,54,27.50
2018,08,09,12,55,27.60
2018,08,09,12,56,27.60
2018,08,09,12,57,27.60
2018,08,09,12,58,27.60
2018,08,09,12,59,27.60
2018,08,09,13,00,27.60
2018,08,09,13,01,27.60
2018,08,09,13,02,27.70
2018,08,09,13,03,27.70
2018,08,09,13,04,27.70
2018,08,09,13,05,27.70
2018,08,09,13,06,27.60
2018,08,09,13,07,27.60
2018,08,09,13,08,27.50
2018,08,09,13,09,27.50
2018,08,09,13,10,27.50
2018,08,09,13,11,27.50
2018,08,09,13,12,27.50
2018,08,09,13,13,27.60
2018,08,09,13,14,27.60
2018,08,09,13,15,27.70
2018,08,09,13,16,27.70
2018,08,09,13,17,27.70
2018,08,09,13,18,27.70
2018,08,09,13,19,27.60
2018,08,09,13,20,27.60
2018,08,09,13,21,27.50
2018,08,09,13,22,27.50
2018,08,09,13,23,27.40
2018,08,09,13,24,27.40
2018,08,09,13,25,27.40
2018,08,09,13,26,27.50
2018,08,09,13,27,27.50
2018,08,09,13,28,27.50
2018,08,09,13,29,27.50
2018,08,09,13,30,27.60
2018,08,09,13,31,27.60
2018,08,09,13,32,27.70
2018,08,09,13,33,27.70
2018,08,09,13,34,27.70
2018,08,09,13,35,27.80
2018,08,09,13,36,27.80
2018,08,09,13,37,27.80
2018,08,09,13,38,27.90
2018,08,09,13,39,27.90
2018,08,09,13,40,28.00
2018,08,09,13,41,28.00
2018,08,09,13,42,28.00
2018,08,09,13,43,27.90
2018,08,09,13,44,27.80
2018,08,09,13,45,27.70
2018,08,09,13,46,27.60
2018,08,09,13,47,27.50
2018,08,09,13,48,27.40
2018,08,09,13,49,27.30
2018,08,09,13,50,27.20
2018,08,09,13,51,27.10
2018,08,09,13,52,27.10
2018,08,09,13,53,27.10
2018,08,09,13,54,27.20
2018,08,09,13,55,27.20
2018,08,09,13,56,27.30
2018,08,09,13,57,27.30
2018,08,09,13,58,27.30
2018,08,09,13,59,27.30
2018,08,09,14,00,27.30
2018,08,09,14,01,27.30
2018,08,09,14,02,27.20
2018,08,09,14,03,27.20
2018,08,09,14,04,27.30
2018,08,09,14,05,27.30
2018,08,09,14,06,27.30
2018,08,09,14,07,27.30
2018,08,09,14,08,27.30
2018,08,09,14,09,27.30
2018,08,09,14,10,27.40
2018,08,09,14,11,27.50
2018,08,09,14,12,27.60
2018,08,09,14,13,27.60
2018,08,09,14,14,27.70
2018,08,09,14,15,27.80
2018,08,09,14,16,27.90
2018,08,09,14,17,27.90
2018,08,09,14,18,28.00
2018,08,09,14,19,28.10
2018,08,09,14,20,28.20
2018,08,09,14,21,28.30
2018,08,09,14,22,28.40
2018,08,09,14,23,28.50
2018,08,09,14,24,28.50
2018,08,09,14,25,28.60
2018,08,09,14,26,28.60
2018,08,09,14,27,28.70
2018,08,09,14,28,28.80
2018,08,09,14,29,28.90
2018,08,09,14,30,29.10
2018,08,09,14,31,29.20
2018,08,09,14,32,29.20
2018,08,09,14,33,29.30
2018,08,09,14,34,29.30
2018,08,09,14,35,29.30
2018,08,09,14,36,29.40
2018,08,09,14,37,29.50
2018,08,09,14,38,29.50
2018,08,09,14,39,29.60
2018,08,09,14,40,29.60
2018,08,09,14,41,29.70
2018,08,09,14,42,29.70
2018,08,09,14,43,29.80
2018,08,09,14,44,29.90
2018,08,09,14,45,30.00
2018,08,09,14,46,30.10
2018,08,09,14,47,30.10
2018,08,09,14,48,30.20
2018,08,09,14,49,30.30
2018,08,09,14,50,30.50
2018,08,09,14,51,30.50
2018,08,09,14,52,30.40
2018,08,09,14,53,30.30
2018,08,09,14,54,30.20
2018,08,09,14,55,30.10
2018,08,09,14,56,30.00
2018,08,09,14,57,29.90
2018,08,09,14,58,29.80
2018,08,09,14,59,29.80
2018,08,09,15,00,29.70
2018,08,09,15,01,29.70
2018,08,09,15,02,29.60
2018,08,09,15,03,29.60
2018,08,09,15,04,29.60
2018,08,09,15,05,29.70
2018,08,09,15,06,29.70
2018,08,09,15,07,29.70
2018,08,09,15,08,29.70
2018,08,09,15,09,29.70
2018,08,09,15,10,29.80
2018,08,09,15,11,29.70
2018,08,09,15,12,29.70
2018,08,09,15,13,29.60
2018,08,09,15,14,29.50
2018,08,09,15,15,29.40
2018,08,09,15,16,29.30
2018,08,09,15,17,29.20
2018,08,09,15,18,29.10
2018,08,09,15,19,29.00
2018,08,09,15,20,28.90
2018,08,09,15,21,28.80
2018,08,09,15,22,28.70
2018,08,09,15,23,28.60
2018,08,09,15,24,28.50
2018,08,09,15,25,28.50
2018,08,09,15,26,28.50
2018,08,09,15,27,28.60
2018,08,09,15,28,28.60
2018,08,09,15,29,28.70
2018,08,09,15,30,28.70
2018,08,09,15,31,28.70
2018,08,09,15,32,28.70
2018,08,09,15,33,28.70
2018,08,09,15,34,28.60
2018,08,09,15,35,28.60
2018,08,09,15,36,28.50
2018,08,09,15,37,28.50
2018,08,09,15,38,28.40
2018,08,09,15,39,28.50
2018,08,09,15,40,28.50
2018,08,09,15,41,28.50
2018,08,09,15,42,28.50
2018,08,09,15,43,28.50
2018,08,09,15,44,28.50
2018,08,09,15,45,28.50
2018,08,09,15,46,28.50
2018,08,09,15,47,28.40
2018,08,09,15,48,28.40
2018,08,09,15,49,28.50
2018,08,09,15,50,28.60
2018,08,09,15,51,28.70
2018,08,09,15,52,28.80
2018,08,09,15,53,28.80
2018,08,09,15,54,28.90
2018,08,09,15,55,29.00
2018,08,09,15,56,29.00
2018,08,09,15,57,29.00
2018,08,09,15,58,29.10
2018,08,09,15,59,29.10
2018,08,09,16,00,29.20
2018,08,09,16,01,29.30
2018,08,09,16,02,29.40
2018,08,09,16,03,29.60
2018,08,09,16,04,29.70
2018,08,09,16,05,29.80
2018,08,09,16,06,29.90
2018,08,09,16,07,30.00
2018,08,09,16,08,30.10
2018,08,09,16,09,30.20
2018,08,09,16,10,30.30
2018,08,09,16,11,30.40
2018,08,09,16,12,30.40
2018,08,09,16,13,30.50
2018,08,09,16,14,30.60
2018,08,09,16,15,30.80
2018,08,09,16,16,30.90
2018,08,09,16,17,31.00
2018,08,09,16,18,31.10
2018,08,09,16,19,31.20
2018,08,09,16,20,31.30
2018,08,09,16,21,31.30
2018,08,09,16,22,31.30
2018,08,09,16,23,31.40
2018,08,09,16,24,31.40
2018,08,09,16,25,31.50
2018,08,09,16,26,31.60
2018,08,09,16,27,31.60
2018,08,09,16,28,31.80
2018,08,09,16,29,31.80
2018,08,09,16,30,31.80
2018,08,09,16,31,31.90
2018,08,09,16,32,32.00
2018,08,09,16,33,32.00
2018,08,09,16,34,32.10
2018,08,09,16,35,32.10
2018,08,09,16,36,32.10
2018,08,09,16,37,32.20
2018,08,09,16,38,32.20
2018,08,09,16,39,32.10
2018,08,09,16,40,32.20
2018,08,09,16,41,32.20
2018,08,09,16,42,32.20
2018,08,09,16,43,32.20
2018,08,09,16,44,32.20
2018,08,09,16,45,32.20
2018,08,09,16,46,32.20
2018,08,09,16,47,32.30
2018,08,09,16,48,32.30
2018,08,09,16,49,32.30
2018,08,09,16,50,32.30
2018,08,09,16,51,32.30
2018,08,09,16,52,32.30
2018,08,09,16,53,32.40
2018,08,09,16,54,32.40
2018,08,09,16,55,32.40
2018,08,09,16,56,32.50
2018,08,09,16,57,32.50
2018,08,09,16,58,32.60
2018,08,09,16,59,32.60
2018,08,09,17,00,32.60
2018,08,09,17,01,32.60
2018,08,09,17,02,32.70
2018,08,09,17,03,32.70
2018,08,09,17,04,32.80
2018,08,09,17,05,32.80
2018,08,09,17,06,32.70
2018,08,09,17,07,32.70
2018,08,09,17,08,32.70
2018,08,09,17,09,32.70
2018,08,09,17,10,32.60
2018,08,09,17,11,32.50
2018,08,09,17,12,32.40
2018,08,09,17,13,32.40
2018,08,09,17,14,32.30
2018,08,09,17,15,32.20
2018,08,09,17,16,32.20
2018,08,09,17,17,32.20
2018,08,09,17,18,32.10
2018,08,09,17,19,32.10